This is the latest recevied weather packets stored in our database for station/object SR2WXM. If no packets are shown the sender has not sent any weather packets the latest 10 day(s).
| Time | Temp. | Humidity | Pressure | Rain* | Wind** | Luminosity | Snow |
|---|---|---|---|---|---|---|---|
| 1777808702 | 26.67° C | 23% | 1012.1 hPa | 0 mm | - | - | - |
| 1777807803 | 27.78° C | 24% | 1012.1 hPa | 0 mm | - | - | - |
| 1777806903 | 26.67° C | 24% | 1012.1 hPa | 0 mm | - | - | - |
| 1777806004 | 26.67° C | 26% | 1012.5 hPa | 0 mm | - | - | - |
| 1777805103 | 25.56° C | 26% | 1013.2 hPa | 0 mm | - | - | - |
| 1777803307 | 25.56° C | 27% | 1013.2 hPa | 0 mm | - | - | - |
| 1777802404 | 25.56° C | 29% | 1013.2 hPa | 0 mm | - | - | - |
| 1777801502 | 25.56° C | 29% | 1013.5 hPa | 0 mm | - | - | - |
| 1777800603 | 25° C | 30% | 1013.5 hPa | 0 mm | - | - | - |
| 1777799712 | 25° C | 34% | 1013.8 hPa | 0 mm | - | - | - |
| 1777798801 | 23.89° C | 33% | 1013.8 hPa | 0 mm | - | - | - |
| 1777797901 | 23.89° C | 34% | 1013.8 hPa | 0 mm | - | - | - |
| 1777797002 | 23.89° C | 36% | 1013.8 hPa | 0 mm | - | - | - |
| 1777796103 | 22.78° C | 35% | 1013.8 hPa | 0 mm | - | - | - |
| 1777795202 | 22.78° C | 37% | 1014.2 hPa | 0 mm | - | - | - |
| 1777794302 | 21.67° C | 38% | 1014.2 hPa | 0 mm | - | - | - |
| 1777793402 | 20.56° C | 40% | 1014.2 hPa | 0 mm | - | - | - |
| 1777792502 | 20° C | 40% | 1014.2 hPa | 0 mm | - | - | - |
| 1777791604 | 20° C | 42% | 1014.2 hPa | 0 mm | - | - | - |
| 1777790702 | 18.89° C | 44% | 1014.2 hPa | 0 mm | - | - | - |
| 1777789802 | 17.78° C | 45% | 1014.2 hPa | 0 mm | - | - | - |
| 1777788902 | 17.78° C | 47% | 1014.2 hPa | 0 mm | - | - | - |
| 1777788002 | 16.67° C | 49% | 1014.2 hPa | 0 mm | - | - | - |
| 1777787102 | 15.56° C | 56% | 1014.2 hPa | 0 mm | - | - | - |
| 1777786202 | 13.89° C | 58% | 1014.2 hPa | 0 mm | - | - | - |
* Rain latest hour (hover to see other rain measurements)
** Current wind speed in m/s (hover to see current wind gust speed)